{"data":{"norad_id":64708,"intl_designator":"2025-142N","name":"STARLINK-34563","alt_names":[],"object_type":"PAYLOAD","status":"ACTIVE","operator":null,"country":"US","launch_date":"2025-06-28","launch_site_code":"AFWTR","launch_vehicle":null,"mission":null,"orbit_class":"UNKNOWN","rcs_meters":null,"size_class":null,"mass_kg":null,"dimensions":null,"purposes":["comms"],"wikipedia_slug":null,"has_3d_model":false,"image_url":null,"decayed_at":null,"tle_current":{"epoch":"2026-05-25T04:24:21.870144Z","epoch_age_seconds":62269,"freshness":"FRESH","line1":"1 64708U 25142N   26145.18358646 -.00000343  00000+0 -20962-4 0  9992","line2":"2 64708  69.9997 121.7930 0003532 268.4132  91.6622 14.98322015 50914","mean_motion":14.98322015,"eccentricity":0.0003532,"inclination_deg":69.9997,"raan_deg":121.793,"arg_perigee_deg":268.4132,"mean_anomaly_deg":91.6622,"bstar":-2.0962e-5,"rev_number":5091,"period_min":96.107511308242,"perigee_km":569.62576715722,"apogee_km":574.53540085857,"semimajor_km":6950.2175840079,"source":"CELESTRAK","updated_at":"2026-05-25T13:38:20.513976Z"}}}